Vorticity
16 16 16 16 16 15 14 14 15 15 13 12 8 6 5 4 4 4 5 6 7 6 4 6 7 8 8 9 9 11 12 12 13 13 14 14 14 14 14 14 14 13 13 12 12 11 11 10 10 9 9 9 9 8 8 7 7 8 8 8 11 11 10 7 7 8 9 10 11 13 12 8 9 10 8 8 9 8 8 8 8 8 8 7 6 6 7 9
13 13 14 14 15 16 15 15 15 15 15 15 15 12 10 8 8 8 7 9 10 10 8 8 10 11 11 12 13 14 15 14 13 12 13 12 12 11 10 9 8 8 7 7 7 7 7 7 8 7 7 8 7 7 7 7 8 7 6 9 11 8 6 4 6 9 9 9 6 6 7 5 5 6 6 7 6 6 5 6 7 7 6 5 7 9 9 9
10 10 12 12 14 16 16 16 16 16 16 17 18 17 16 14 12 11 10 10 12 14 14 13 13 12 11 11 11 11 10 9 8 6 6 5 5 4 4 4 4 5 5 5 5 6 6 7 8 8 8 9 9 10 10 10 10 9 9 11 9 5 5 5 5 6 7 8 6 4 5 6 5 6 6 7 7 7 5 5 6 6 6 7 8 8 8 7
10 10 11 11 11 12 12 13 13 13 14 14 15 15 14 14 13 12 12 14 15 15 15 14 13 12 10 8 6 5 4 3 4 3 3 3 4 4 5 5 5 6 5 5 5 5 6 7 7 8 9 10 10 12 12 11 11 11 13 11 8 8 7 6 7 6 6 9 10 8 6 5 5 8 9 8 7 6 6 7 7 7 8 9 9 8 9 9
11 11 12 11 10 11 10 11 11 12 12 13 13 13 13 14 14 14 13 13 12 11 9 8 8 7 6 6 5 5 5 5 5 5 5 5 5 5 6 6 6 6 6 6 6 6 6 6 7 7 9 9 10 11 11 11 10 11 13 12 10 8 7 7 10 10 9 10 10 8 7 7 8 9 9 8 8 8 8 8 8 9 10 10 9 9 9 9
11 12 12 12 12 12 13 13 13 13 13 13 12 12 12 10 9 8 7 6 5 5 4 4 5 5 6 5 6 6 6 6 6 7 6 6 6 6 6 6 6 6 7 7 6 7 6 7 7 7 9 8 8 8 8 9 8 11 12 10 9 7 7 8 10 11 10 9 8 8 8 8 8 7 7 7 7 7 7 7 7 7 8 9 9 8 8 8
11 11 10 10 10 10 9 9 8 7 7 6 6 5 5 4 4 3 3 3 3 3 3 4 4 4 5 4 4 4 5 5 5 5 6 6 7 7 7 7 7 7 7 7 7 7 7 8 7 9 10 8 7 8 8 7 6 9 9 8 7 5 5 7 7 8 7 6 5 6 7 6 6 5 5 5 4 6 6 5 5 5 6 6 7 7 7 7
8 7 6 6 5 5 4 3 3 2 2 2 2 2 2 2 3 3 3 3 3 4 4 4 4 4 3 3 3 3 4 4 4 5 5 6 7 7 7 6 6 6 6 7 7 7 8 8 8 10 9 7 7 8 8 7 6 8 8 7 7 4 5 7 6 6 6 5 5 6 7 6 6 6 4 5 7 8 8 8 8 8 8 7 7 7 7 8
5 4 4 4 2 2 2 2 2 2 2 2 2 3 3 3 3 4 4 4 5 4 5 5 5 5 5 5 5 4 5 5 5 5 5 5 6 5 6 5 6 6 6 7 7 7 7 6 7 7 7 7 8 8 8 10 8 7 8 10 10 7 8 9 8 10 9 7 8 9 8 7 7 6 5 7 9 9 9 8 8 8 8 7 7 7 7 8
3 3 3 3 2 2 2 2 2 2 3 2 3 4 3 4 4 5 5 5 5 5 6 6 6 6 6 6 5 6 6 6 5 5 5 5 5 5 5 6 6 6 6 7 6 6 6 6 6 7 7 7 6 7 7 9 7 6 9 10 9 8 8 8 8 9 9 8 10 10 8 7 7 6 6 8 7 6 7 7 8 8 7 7 7 6 6 5
3 3 3 2 2 3 3 3 3 3 4 4 4 5 5 5 5 5 6 6 6 6 7 7 7 7 7 7 6 7 7 6 6 5 5 5 5 5 5 5 6 6 7 8 7 6 8 7 7 8 8 6 5 7 7 7 7 7 9 7 7 7 6 7 5 6 6 6 8 9 6 4 6 6 7 8 7 7 7 7 7 7 6 6 6 5 4 4
2 4 3 3 3 4 4 4 5 5 6 6 7 7 7 7 8 8 7 7 7 7 8 7 7 7 6 7 6 6 6 6 7 7 7 7 7 7 7 7 7 8 8 9 9 8 8 8 8 9 8 7 8 9 8 8 9 8 6 6 6 6 5 6 5 6 6 6 8 8 5 4 6 7 6 6 7 6 5 5 5 5 6 6 6 6 6 6
3 4 4 4 5 5 6 6 7 7 7 8 8 8 8 8 9 9 8 8 9 8 8 8 7 7 7 7 7 7 7 7 7 7 7 7 8 8 9 9 9 9 10 10 9 9 10 9 9 9 7 7 8 7 7 8 8 7 6 7 7 5 6 6 6 7 7 7 8 6 5 5 7 7 7 7 6 5 4 4 5 5 6 7 7 8 8 8
4 5 5 5 6 6 7 7 7 6 6 6 6 6 6 7 7 7 8 8 9 9 8 8 8 8 9 9 10 10 10 10 10 10 10 10 10 10 10 10 10 10 10 10 9 10 10 9 9 9 8 8 8 8 8 7 6 6 6 8 8 6 7 7 7 7 8 7 6 5 5 6 7 6 6 6 6 6 6 6 6 6 7 7 7 8 9 9
5 6 6 6 6 6 6 6 6 5 5 5 5 6 5 5 6 6 8 8 9 9 8 8 8 8 9 9 9 9 10 11 11 12 12 12 11 11 12 11 12 12 12 11 10 10 9 9 10 9 8 9 9 9 9 8 8 7 8 9 8 8 8 7 7 7 7 8 7 7 8 9 8 7 7 6 7 7 7 7 6 6 6 7 7 7 7 8
5 5 5 5 5 5 5 5 5 5 5 5 5 5 5 5 6 7 8 9 9 8 7 7 7 7 8 9 9 9 10 10 10 10 11 12 12 12 12 12 13 12 12 11 10 10 10 11 11 10 9 10 11 10 9 10 10 9 8 8 8 8 8 7 7 8 7 8 9 7 7 9 9 8 8 7 7 8 7 7 6 7 8 8 8 7 6 6
4 4 4 5 5 4 5 4 4 4 4 5 5 5 6 6 7 8 9 9 9 8 8 7 6 8 9 9 10 10 9 10 10 11 11 11 11 12 12 12 12 11 11 10 9 10 10 10 9 8 9 9 9 9 9 9 9 10 9 8 8 10 10 8 6 8 8 8 10 9 7 9 9 8 7 6 6 7 6 7 7 8 8 8 7 8 8 9
3 4 4 4 4 4 5 4 4 5 5 5 6 6 6 7 9 9 8 8 8 9 9 9 9 10 10 9 10 10 10 12 11 11 12 11 12 11 11 11 10 9 9 8 8 10 10 9 9 9 9 8 8 8 8 8 6 6 8 8 9 8 9 11 11 10 9 8 9 9 8 8 8 8 7 6 5 4 5 7 7 7 7 7 8 9 10 10
3 4 4 4 5 5 5 6 5 5 6 6 6 6 7 9 9 8 8 9 9 10 10 9 9 10 9 10 10 10 10 10 10 11 11 10 10 9 9 8 7 7 8 7 9 10 8 8 8 8 7 6 6 8 8 7 5 5 5 6 5 3 3 6 8 7 7 6 6 6 7 6 6 7 6 6 5 5 6 5 5 6 7 8 8 9 10 10
4 4 4 5 6 6 6 6 6 6 7 7 7 7 8 8 8 8 9 9 9 9 10 9 10 11 10 10 10 10 11 11 11 11 10 9 9 9 8 7 7 8 8 8 8 7 6 6 6 6 6 6 7 7 6 6 7 6 6 5 5 4 4 2 3 4 4 3 3 3 4 5 5 6 7 7 9 9 9 9 9 10 10 10 11 12 11 9
5 4 5 6 7 7 7 7 7 8 7 7 7 8 8 7 8 9 10 11 10 10 11 10 11 11 9 9 10 10 11 10 9 8 8 7 7 6 7 7 7 7 7 7 6 6 6 5 6 6 5 6 6 6 6 6 7 7 5 4 5 6 5 5 7 8 7 8 10 11 10 10 10 11 13 13 13 15 15 16 16 15 16 18 16 14 11 11
6 6 6 7 8 8 8 8 8 7 7 7 8 8 8 8 9 10 10 12 12 12 12 11 10 10 9 10 9 9 9 9 8 6 5 6 7 7 8 8 7 6 6 7 6 7 7 7 7 7 7 7 6 4 5 5 4 6 7 8 10 11 11 13 15 16 16 16 17 17 16 15 15 15 15 16 16 16 16 15 15 17 18 17 14 13 14 16
7 7 8 8 9 9 9 8 8 8 8 9 10 10 10 11 11 11 13 13 13 13 11 10 10 9 10 10 9 9 8 7 6 7 8 8 9 8 7 7 7 7 8 8 8 7 7 7 6 6 6 6 7 9 11 14 14 16 17 17 18 19 19 18 16 16 17 15 14 15 14 14 14 14 14 15 15 13 12 13 16 17 15 14 14 16 16 15
8 8 9 9 9 10 9 9 8 9 10 11 12 12 12 13 12 13 13 12 11 10 9 9 10 9 10 10 8 7 5 5 7 8 9 9 8 7 7 7 7 7 6 6 6 6 6 7 8 10 12 13 16 17 18 17 17 17 16 15 15 14 16 15 13 12 12 12 13 13 12 11 12 13 13 12 10 12 15 18 18 15 12 12 12 10 8 8
9 9 9 9 10 10 10 10 11 12 12 12 12 12 12 12 12 11 10 9 9 9 9 9 9 9 9 7 5 6 7 8 9 8 7 6 6 6 6 5 5 6 7 8 9 12 14 16 17 17 17 16 15 14 13 12 12 14 14 14 13 12 12 12 12 12 13 15 16 14 15 16 13 11 11 11 13 16 17 14 10 7 7 7 6 6 6 8
9 9 10 11 11 11 11 12 12 12 12 11 11 11 11 10 9 8 7 7 8 8 8 9 8 6 5 5 6 8 9 7 6 5 5 6 6 6 7 9 11 13 15 15 16 16 16 16 16 15 15 16 16 15 15 15 14 14 14 13 13 13 14 15 17 17 19 22 21 18 19 21 19 19 21 22 20 16 10 6 7 9 11 12 12 13 14 15
10 11 11 12 12 12 13 12 12 11 11 10 10 10 9 7 7 6 7 7 6 8 9 7 5 4 5 8 8 7 6 5 6 9 10 11 12 13 15 16 16 16 15 15 16 16 15 15 17 16 15 15 15 15 13 13 14 16 18 20 21 22 24 25 24 22 22 21 18 17 17 20 24 28 27 23 19 15 12 12 13 13 13 13 12 12 12 12
12 12 12 12 12 12 11 10 10 10 9 9 9 8 7 6 6 7 7 7 8 9 7 5 5 6 8 8 7 7 9 11 13 14 13 14 14 14 14 14 13 14 14 14 15 14 14 14 13 13 14 15 16 19 21 23 25 25 25 24 21 20 19 17 16 15 15 12 9 11 14 16 20 22 19 18 18 18 18 16 11 10 10 10 10 10 11 11
12 11 11 10 9 10 9 8 9 8 7 8 8 8 7 7 8 8 8 9 9 7 6 8 9 9 10 10 11 13 14 14 13 12 12 13 13 13 14 15 16 17 17 18 19 18 19 20 21 22 24 25 25 24 23 21 18 16 14 11 9 9 9 9 9 8 8 5 4 6 8 10 13 12 12 15 19 20 21 20 17 16 16 15 14 13 13 12
11 10 10 8 7 8 7 7 8 7 7 8 9 9 9 10 9 9 9 10 9 8 10 12 11 12 13 13 13 12 11 11 11 13 16 17 18 20 23 25 27 28 28 29 28 27 27 27 25 23 19 16 14 12 10 9 9 9 9 8 8 8 7 8 6 4 3 2 2 3 4 7 9 8 9 12 15 17 19 21 20 19 18 15 14 13 12 11
9 7 7 6 6 7 8 9 10 10 11 12 12 12 12 12 11 11 11 11 11 12 13 13 13 13 11 10 10 11 14 18 20 24 25 25 26 27 27 27 26 26 24 22 20 19 18 16 13 12 11 10 10 11 11 12 11 11 11 9 8 6 5 4 3 3 3 2 2 2 3 4 5 7 10 11 12 14 16 18 18 18 16 15 13 13 13 13
6 6 7 10 11 13 15 16 17 17 17 16 16 16 15 14 14 14 14 13 14 14 12 11 10 9 10 14 16 19 23 24 24 26 25 24 22 20 19 18 16 16 14 12 13 13 13 13 12 13 14 11 11 11 10 9 7 7 7 6 5 4 4 4 3 3 4 4 3 3 2 3 4 7 9 10 12 13 14 15 16 16 15 14 14 13 13 13
9 12 14 16 17 18 18 18 18 18 18 17 17 17 17 17 15 15 14 13 12 10 9 10 12 15 19 21 21 22 22 20 20 21 21 19 16 14 15 15 14 14 13 11 11 11 10 9 9 10 9 6 6 5 5 5 6 7 8 7 7 8 8 8 8 6 5 5 4 4 4 2 3 5 7 10 13 14 14 14 14 15 14 13 13 13 12 12
16 17 18 17 16 16 16 16 16 17 17 16 16 15 14 14 12 11 10 9 10 11 13 17 19 21 22 20 18 19 19 17 17 16 14 13 12 12 11 9 9 9 9 7 6 6 6 4 5 5 5 6 7 6 7 9 9 9 11 11 11 10 10 12 10 8 8 7 6 6 5 2 2 4 5 9 12 14 15 15 13 14 14 13 13 12 11 11
17 16 17 16 17 17 17 17 16 15 14 12 11 10 9 10 10 10 12 14 17 19 21 21 20 19 18 18 17 16 15 12 11 10 8 7 7 6 5 5 5 5 6 5 4 5 5 3 4 5 5 6 7 6 7 8 6 6 7 9 8 7 9 11 11 9 9 9 9 7 5 3 2 3 4 6 10 13 15 16 15 13 13 13 11 10 10 9
16 16 16 16 17 15 14 13 11 10 10 9 9 10 12 14 15 17 18 20 21 21 21 18 16 16 15 14 13 10 9 8 7 7 6 4 4 4 5 4 4 4 5 5 4 5 6 5 5 6 5 5 6 4 4 4 4 4 5 4 4 4 5 9 10 9 9 10 10 9 7 5 3 3 2 3 7 11 14 16 16 15 14 13 11 10 10 9
15 15 14 13 12 10 9 9 9 11 12 13 14 16 18 19 20 20 20 20 18 17 17 14 12 12 10 8 8 6 6 6 6 5 4 4 4 5 5 5 5 6 6 7 7 7 8 8 7 8 7 7 7 6 5 4 3 3 4 2 3 4 4 4 6 7 8 10 10 11 10 5 3 3 1 1 4 7 10 13 16 17 16 15 13 11 10 10
13 12 10 9 8 8 10 11 12 14 14 15 17 17 18 18 18 18 17 15 14 12 12 10 8 7 6 6 5 4 5 5 5 4 5 6 6 6 7 7 8 8 8 10 9 9 10 10 9 11 10 9 10 9 8 7 5 4 4 4 4 5 4 2 3 4 5 7 7 11 14 8 4 5 2 0 2 3 6 10 13 15 16 15 15 12 11 11
10 10 9 9 9 10 13 13 13 14 14 14 15 15 15 15 14 13 13 11 10 10 9 6 5 5 5 5 4 5 6 5 5 6 6 7 7 7 8 8 8 8 8 9 9 9 9 8 9 10 11 11 12 11 11 10 8 6 6 6 4 4 5 3 3 4 3 4 3 6 14 12 3 4 5 1 2 2 2 7 9 11 14 15 15 13 12 11
9 9 9 10 10 11 13 13 11 11 12 12 12 13 12 12 10 10 10 9 9 8 5 4 5 5 6 6 5 7 7 6 7 8 7 7 7 7 7 7 6 6 6 6 6 8 7 5 7 8 8 10 10 11 11 10 12 11 8 8 6 3 4 3 3 4 3 5 4 1 10 15 4 3 6 2 2 2 1 5 7 8 10 12 14 14 12 12
10 9 9 10 10 11 11 11 10 10 11 11 11 11 10 10 9 8 9 8 7 6 4 5 7 7 7 8 7 8 8 7 8 7 7 7 7 6 6 6 5 4 6 5 4 6 6 4 5 6 6 8 8 10 11 10 13 13 9 9 9 5 4 3 4 5 3 5 6 0 5 13 6 4 7 4 3 3 2 4 5 5 8 10 12 13 13 13
11 9 9 11 11 11 10 10 11 10 10 10 10 9 9 10 9 7 8 8 6 7 7 8 8 8 8 8 8 8 8 7 7 7 7 6 6 7 5 5 5 4 5 5 3 4 5 3 4 5 5 7 7 8 10 9 11 14 10 10 11 8 6 5 4 5 4 5 6 3 5 10 7 4 7 7 5 3 2 5 5 4 7 10 12 13 13 13
12 10 9 11 11 10 9 9 9 10 9 9 9 9 8 10 9 8 9 9 8 8 9 9 8 9 8 7 8 9 8 7 6 6 7 5 4 6 5 4 5 4 4 5 4 4 4 2 3 5 5 7 7 7 9 9 10 13 11 10 12 10 7 7 4 4 5 5 6 5 6 10 8 4 7 8 5 3 3 5 4 3 5 9 11 12 12 13
11 11 9 10 10 8 9 9 8 9 9 8 8 9 8 9 9 8 8 9 9 8 9 9 8 8 8 8 8 7 7 7 5 5 7 6 4 5 6 4 4 4 4 4 4 4 4 3 2 4 5 7 8 7 9 10 9 11 11 11 14 11 8 8 6 5 5 4 6 3 3 11 10 3 6 10 6 4 5 5 4 4 5 8 10 11 12 13
10 11 9 9 9 8 8 9 9 8 8 8 8 9 9 8 9 10 9 9 10 8 8 8 8 8 7 7 6 6 6 6 5 4 5 6 4 4 6 5 4 4 5 4 4 4 5 5 4 4 4 5 8 9 9 9 10 10 10 12 13 11 10 10 7 7 6 4 8 4 0 11 13 3 6 11 6 5 6 5 5 4 5 7 9 10 11 13
9 10 10 8 8 10 8 8 9 8 8 9 8 8 9 9 9 10 9 9 10 9 7 7 7 7 6 6 5 5 5 5 5 5 5 5 5 4 6 6 4 4 4 5 5 4 5 7 6 6 5 5 8 9 9 9 10 10 10 11 12 11 12 12 9 9 6 4 10 7 0 7 11 7 10 11 6 6 7 7 6 5 5 7 8 9 10 12
8 8 10 9 8 9 9 8 9 9 9 10 9 8 9 10 9 9 9 8 8 8 7 6 6 5 5 6 4 3 5 5 4 4 4 6 5 4 5 6 5 5 4 5 5 5 6 8 8 8 7 5 7 10 11 10 9 11 10 10 11 12 13 13 10 8 7 5 9 10 4 4 6 8 12 11 8 8 8 7 7 6 6 7 9 9 11 12
9 7 8 10 9 8 9 9 9 10 10 10 10 9 9 9 9 9 8 7 7 8 7 5 6 5 4 6 5 3 4 5 5 4 4 5 5 5 5 5 5 6 5 6 7 6 7 7 9 12 10 6 7 11 12 10 9 11 10 9 11 12 12 12 11 9 8 8 9 10 6 3 3 6 10 11 10 9 8 8 7 6 7 8 9 9 11 13
9 8 7 8 9 9 9 9 9 9 10 11 10 10 9 9 9 8 8 8 6 7 7 5 5 5 4 4 5 4 4 5 5 5 5 5 5 5 6 6 6 7 6 7 8 8 9 8 8 12 13 8 8 12 12 10 11 11 9 9 11 11 11 12 12 10 8 9 9 9 8 5 3 4 8 11 11 9 7 7 6 6 8 8 8 9 10 12
8 10 8 7 10 11 9 9 10 8 9 11 10 10 10 9 9 7 7 7 6 5 6 5 5 5 4 4 5 5 5 5 6 5 6 7 6 7 8 8 7 8 8 8 9 9 10 10 8 11 14 10 9 13 12 10 13 12 9 10 10 10 11 13 13 10 8 8 9 7 9 9 5 4 6 10 11 9 7 6 6 8 9 8 7 9 10 11
8 10 10 8 10 13 10 10 10 9 10 11 10 10 9 8 8 7 5 5 6 6 5 5 5 6 5 5 6 6 6 6 7 7 8 8 8 8 9 9 8 9 9 9 10 10 10 11 9 10 14 12 9 11 12 11 13 12 8 10 10 9 10 14 14 10 7 9 10 7 9 11 8 6 6 8 11 10 8 6 6 9 9 7 7 10 11 12
10 10 10 9 11 13 11 10 11 10 10 10 9 9 9 7 7 7 6 5 5 5 5 5 5 6 6 6 6 7 7 8 8 8 9 9 9 9 10 9 9 9 9 9 10 11 10 11 11 10 13 13 10 10 12 12 13 10 8 11 11 9 9 13 15 9 6 10 11 8 9 10 10 8 6 7 10 10 9 6 5 9 9 6 8 10 11 12
Height
5798 5797 5797 5797 5796 5796 5796 5797 5797 5798 5798 5799 5799 5800 5800 5800 5800 5801 5801 5801 5801 5801 5801 5800 5800 5800 5799 5799 5799 5799 5799 5798 5798 5798 5797 5797 5797 5796 5796 5796 5795 5795 5795 5794 5794 5794 5793 5793 5792 5792 5791 5791 5790 5790 5790 5789 5788 5788 5787 5787 5788 5787 5786 5784 5783 5781 5780 5781 5781 5782 5783 5780 5779 5781 5782 5781 5780 5779 5777 5776 5775 5773 5772 5770 5768 5768 5769 5768
5797 5796 5796 5796 5795 5795 5795 5795 5796 5796 5797 5797 5798 5798 5799 5799 5799 5799 5799 5799 5799 5799 5799 5799 5799 5798 5798 5798 5797 5797 5797 5796 5796 5795 5795 5795 5795 5794 5794 5794 5793 5793 5792 5792 5791 5791 5790 5790 5790 5789 5788 5788 5787 5787 5787 5786 5785 5784 5784 5784 5784 5783 5781 5779 5779 5778 5777 5779 5779 5777 5777 5775 5773 5775 5778 5777 5775 5774 5773 5772 5770 5768 5767 5766 5766 5765 5766 5765
5796 5796 5795 5795 5795 5795 5795 5795 5795 5795 5796 5796 5796 5797 5797 5797 5797 5798 5798 5798 5798 5797 5797 5797 5797 5797 5796 5796 5796 5796 5795 5794 5794 5794 5793 5793 5793 5792 5792 5791 5791 5791 5790 5789 5789 5788 5788 5787 5787 5786 5785 5785 5784 5783 5783 5783 5782 5781 5781 5781 5780 5779 5777 5776 5775 5775 5774 5775 5775 5772 5771 5770 5769 5771 5772 5772 5771 5770 5769 5768 5766 5764 5763 5763 5762 5762 5762 5761
5796 5795 5795 5795 5795 5794 5794 5794 5795 5795 5795 5795 5795 5796 5796 5796 5796 5796 5796 5796 5796 5796 5796 5796 5796 5796 5795 5795 5795 5794 5794 5793 5792 5792 5792 5791 5791 5790 5790 5789 5789 5788 5787 5787 5786 5785 5785 5784 5784 5783 5782 5782 5781 5780 5780 5779 5779 5778 5778 5778 5777 5775 5774 5772 5771 5772 5772 5772 5772 5768 5766 5766 5766 5767 5767 5766 5765 5764 5763 5763 5762 5761 5761 5759 5758 5758 5757 5756
5796 5795 5795 5795 5795 5795 5794 5794 5795 5795 5795 5795 5795 5795 5795 5795 5795 5795 5795 5795 5795 5795 5795 5795 5795 5795 5794 5794 5794 5793 5792 5791 5791 5790 5790 5789 5788 5788 5787 5787 5786 5785 5784 5784 5783 5782 5782 5781 5780 5780 5779 5778 5778 5777 5776 5776 5775 5775 5775 5775 5773 5771 5770 5769 5769 5770 5770 5769 5769 5766 5764 5762 5762 5762 5762 5762 5761 5759 5757 5756 5757 5758 5757 5755 5753 5752 5751 5751
5796 5795 5795 5795 5795 5795 5795 5795 5795 5795 5795 5795 5795 5795 5795 5795 5795 5795 5795 5795 5795 5794 5794 5794 5794 5794 5793 5793 5792 5792 5790 5790 5789 5788 5788 5787 5786 5785 5784 5784 5783 5782 5782 5781 5780 5779 5778 5777 5777 5776 5775 5774 5774 5773 5772 5772 5772 5771 5772 5771 5770 5767 5766 5765 5766 5767 5767 5765 5765 5764 5762 5760 5758 5757 5758 5758 5756 5754 5752 5751 5750 5751 5752 5751 5749 5747 5746 5745
5796 5796 5796 5796 5795 5795 5795 5795 5795 5795 5795 5795 5795 5795 5795 5795 5795 5795 5795 5794 5794 5794 5793 5793 5792 5792 5791 5791 5790 5790 5788 5788 5787 5786 5785 5785 5784 5783 5782 5781 5780 5779 5779 5778 5777 5776 5775 5774 5773 5773 5772 5771 5770 5769 5769 5768 5768 5767 5768 5768 5765 5763 5762 5762 5763 5763 5763 5761 5760 5760 5758 5756 5754 5754 5754 5753 5751 5749 5748 5746 5745 5745 5745 5745 5743 5742 5740 5739
5797 5796 5796 5796 5796 5796 5796 5796 5796 5796 5795 5795 5795 5795 5795 5794 5794 5794 5793 5793 5793 5792 5792 5791 5791 5790 5789 5789 5788 5787 5786 5785 5784 5784 5783 5782 5781 5780 5779 5778 5777 5776 5775 5774 5773 5772 5771 5770 5770 5769 5768 5767 5766 5766 5765 5764 5763 5763 5764 5764 5762 5760 5758 5758 5759 5759 5758 5757 5756 5755 5754 5752 5751 5750 5749 5748 5747 5746 5744 5742 5741 5740 5739 5738 5737 5736 5735 5733
5797 5797 5796 5796 5796 5796 5796 5796 5796 5796 5795 5795 5795 5794 5794 5793 5793 5792 5792 5791 5791 5790 5790 5789 5789 5788 5787 5786 5786 5785 5784 5783 5782 5781 5780 5779 5778 5777 5776 5775 5774 5773 5772 5771 5770 5769 5768 5767 5766 5766 5765 5764 5763 5762 5761 5761 5760 5759 5759 5759 5758 5757 5754 5753 5754 5754 5753 5752 5751 5750 5749 5748 5748 5746 5744 5745 5744 5742 5740 5738 5737 5735 5734 5733 5731 5730 5728 5727
5797 5797 5797 5797 5796 5796 5796 5796 5796 5795 5795 5794 5794 5794 5793 5792 5792 5791 5790 5789 5789 5788 5788 5787 5786 5785 5784 5784 5783 5782 5781 5780 5779 5778 5777 5776 5775 5775 5774 5772 5771 5770 5769 5768 5766 5766 5765 5764 5763 5762 5761 5760 5760 5759 5758 5758 5756 5755 5754 5754 5754 5752 5750 5749 5749 5749 5748 5747 5747 5745 5743 5743 5742 5741 5741 5741 5740 5738 5736 5734 5732 5730 5729 5727 5725 5723 5722 5721
5798 5797 5797 5797 5797 5796 5796 5796 5795 5795 5794 5794 5793 5792 5792 5791 5790 5790 5789 5788 5787 5786 5785 5785 5784 5783 5782 5781 5780 5779 5778 5777 5776 5776 5774 5773 5772 5771 5770 5769 5768 5767 5766 5765 5763 5762 5762 5761 5760 5759 5758 5757 5756 5755 5755 5754 5752 5752 5751 5751 5749 5748 5746 5744 5743 5744 5744 5743 5743 5739 5737 5737 5737 5736 5736 5737 5736 5734 5731 5729 5727 5725 5723 5721 5719 5718 5716 5714
5798 5798 5797 5797 5797 5796 5796 5795 5795 5794 5794 5793 5792 5791 5791 5790 5789 5788 5787 5786 5785 5784 5783 5782 5781 5781 5779 5778 5777 5776 5775 5774 5773 5772 5771 5770 5769 5768 5767 5766 5765 5763 5762 5761 5760 5759 5758 5757 5756 5755 5754 5753 5752 5752 5751 5750 5749 5748 5747 5747 5745 5743 5742 5739 5738 5739 5740 5738 5737 5734 5732 5732 5732 5731 5731 5731 5731 5729 5726 5724 5721 5719 5717 5715 5714 5712 5710 5708
5798 5798 5797 5797 5796 5796 5795 5795 5794 5793 5793 5792 5791 5790 5789 5788 5788 5787 5786 5784 5783 5782 5781 5780 5779 5778 5777 5776 5775 5773 5772 5771 5770 5769 5768 5767 5765 5764 5763 5762 5761 5760 5759 5758 5756 5755 5754 5753 5752 5751 5750 5749 5748 5748 5747 5746 5746 5744 5743 5742 5741 5739 5737 5735 5734 5733 5735 5733 5731 5729 5726 5727 5728 5726 5726 5726 5724 5723 5720 5718 5716 5714 5712 5710 5708 5706 5704 5702
5798 5797 5797 5796 5796 5795 5794 5794 5793 5792 5791 5790 5789 5788 5787 5786 5785 5784 5783 5782 5781 5780 5779 5778 5777 5775 5774 5773 5772 5771 5769 5768 5767 5766 5765 5763 5762 5761 5759 5758 5757 5756 5755 5754 5753 5752 5751 5750 5749 5748 5746 5746 5745 5744 5743 5742 5742 5740 5739 5738 5736 5735 5733 5732 5730 5728 5729 5727 5725 5724 5722 5722 5722 5721 5721 5720 5719 5717 5715 5713 5711 5708 5706 5704 5702 5700 5698 5696
5798 5797 5796 5796 5795 5794 5793 5792 5791 5790 5790 5788 5787 5786 5785 5784 5783 5781 5780 5779 5778 5777 5776 5775 5774 5772 5771 5770 5769 5768 5766 5765 5764 5763 5762 5760 5759 5758 5756 5755 5754 5753 5752 5750 5750 5749 5747 5747 5746 5744 5743 5743 5742 5741 5740 5738 5737 5735 5735 5733 5731 5730 5728 5727 5725 5723 5722 5720 5719 5719 5716 5716 5716 5715 5715 5714 5713 5712 5709 5707 5705 5703 5700 5698 5696 5694 5691 5689
5797 5796 5795 5795 5794 5793 5792 5791 5790 5789 5788 5787 5786 5784 5783 5782 5780 5779 5777 5776 5775 5774 5773 5772 5770 5769 5768 5767 5766 5764 5763 5762 5760 5759 5758 5757 5756 5755 5753 5752 5751 5750 5748 5747 5746 5745 5744 5743 5742 5741 5740 5739 5738 5737 5736 5734 5732 5731 5731 5729 5727 5726 5723 5722 5720 5717 5716 5714 5713 5713 5710 5709 5709 5708 5708 5707 5706 5705 5703 5701 5699 5697 5694 5691 5689 5687 5685 5683
5796 5795 5794 5793 5792 5791 5790 5789 5788 5787 5786 5785 5783 5782 5781 5780 5778 5776 5775 5774 5773 5771 5770 5769 5767 5766 5765 5764 5763 5761 5760 5759 5757 5756 5755 5754 5752 5751 5750 5749 5748 5747 5745 5744 5743 5742 5741 5740 5739 5737 5736 5735 5734 5733 5732 5731 5729 5728 5727 5725 5723 5720 5718 5717 5715 5713 5712 5709 5707 5706 5704 5702 5701 5701 5701 5700 5699 5698 5696 5695 5693 5690 5687 5684 5682 5680 5678 5675
5795 5794 5793 5792 5791 5790 5789 5788 5786 5785 5784 5783 5781 5780 5779 5777 5776 5774 5772 5771 5770 5768 5767 5766 5764 5763 5762 5761 5760 5758 5757 5756 5754 5753 5752 5751 5750 5748 5747 5746 5745 5744 5742 5741 5741 5739 5738 5736 5735 5734 5732 5732 5731 5730 5729 5727 5726 5724 5723 5721 5718 5715 5713 5712 5710 5708 5708 5704 5702 5701 5698 5695 5694 5694 5694 5693 5692 5691 5690 5688 5685 5682 5679 5677 5675 5672 5670 5668
5794 5793 5792 5791 5790 5789 5788 5786 5785 5784 5782 5781 5779 5778 5776 5775 5774 5772 5770 5768 5767 5765 5764 5763 5762 5760 5759 5758 5757 5755 5754 5753 5752 5750 5749 5748 5747 5746 5745 5744 5742 5741 5739 5738 5738 5737 5735 5733 5732 5730 5729 5728 5727 5726 5724 5723 5722 5720 5719 5717 5714 5712 5711 5707 5705 5704 5703 5699 5697 5696 5693 5690 5689 5688 5687 5686 5686 5685 5683 5680 5677 5674 5672 5669 5667 5665 5662 5659
5793 5792 5791 5790 5789 5787 5786 5785 5784 5782 5781 5779 5777 5776 5774 5773 5771 5770 5768 5766 5764 5763 5762 5760 5759 5758 5757 5755 5754 5753 5752 5751 5749 5748 5747 5745 5744 5743 5742 5741 5739 5738 5737 5735 5735 5734 5732 5731 5729 5727 5726 5725 5723 5721 5719 5718 5717 5715 5714 5711 5709 5709 5707 5704 5701 5699 5698 5695 5693 5691 5688 5685 5683 5682 5681 5680 5680 5679 5676 5673 5671 5667 5664 5662 5659 5656 5653 5651
5792 5791 5789 5788 5787 5786 5784 5783 5782 5780 5779 5777 5775 5774 5772 5770 5769 5767 5766 5764 5763 5761 5759 5758 5757 5755 5754 5753 5752 5751 5749 5748 5747 5746 5745 5744 5742 5741 5739 5738 5737 5735 5734 5733 5731 5730 5728 5727 5725 5724 5723 5721 5720 5717 5715 5714 5712 5710 5709 5706 5705 5704 5702 5699 5696 5694 5692 5690 5687 5685 5683 5680 5678 5677 5675 5674 5673 5671 5669 5667 5664 5661 5658 5654 5651 5648 5646 5644
5790 5789 5788 5787 5785 5784 5783 5781 5780 5778 5776 5775 5773 5771 5770 5768 5766 5765 5763 5762 5760 5759 5757 5756 5755 5753 5752 5751 5750 5749 5747 5746 5745 5744 5743 5742 5740 5738 5737 5735 5734 5732 5731 5729 5728 5726 5724 5723 5721 5720 5719 5717 5715 5713 5711 5710 5709 5706 5704 5702 5700 5699 5697 5696 5692 5688 5687 5685 5682 5680 5677 5675 5674 5672 5670 5669 5667 5665 5663 5661 5658 5655 5651 5647 5644 5642 5640 5637
5789 5788 5787 5785 5784 5782 5780 5779 5777 5776 5774 5772 5771 5769 5767 5766 5764 5763 5761 5760 5758 5757 5755 5754 5753 5751 5750 5749 5748 5747 5745 5744 5743 5741 5740 5739 5737 5735 5734 5732 5731 5730 5727 5725 5724 5722 5720 5719 5717 5716 5715 5712 5711 5709 5706 5705 5704 5702 5700 5698 5695 5693 5692 5691 5687 5683 5682 5680 5677 5674 5672 5671 5669 5667 5665 5663 5661 5659 5657 5654 5651 5648 5644 5640 5638 5636 5633 5630
5788 5786 5785 5783 5782 5780 5778 5776 5775 5773 5772 5770 5768 5767 5765 5763 5762 5760 5759 5758 5756 5755 5754 5752 5751 5750 5748 5747 5746 5745 5743 5742 5741 5739 5737 5736 5734 5732 5731 5729 5727 5727 5724 5722 5721 5719 5717 5715 5713 5712 5710 5708 5707 5705 5703 5700 5699 5697 5695 5694 5691 5689 5687 5686 5683 5679 5678 5676 5673 5669 5667 5667 5665 5663 5661 5658 5655 5653 5650 5648 5644 5640 5637 5634 5632 5630 5627 5624
5786 5784 5783 5781 5780 5778 5776 5774 5772 5771 5769 5768 5766 5764 5763 5761 5760 5758 5757 5756 5755 5753 5752 5750 5749 5748 5746 5745 5744 5742 5741 5739 5738 5737 5735 5733 5731 5729 5728 5726 5724 5723 5721 5719 5717 5715 5713 5711 5709 5707 5706 5704 5703 5701 5699 5697 5695 5693 5692 5690 5688 5686 5684 5682 5680 5676 5674 5672 5669 5665 5662 5662 5661 5659 5656 5653 5650 5647 5644 5640 5637 5633 5630 5628 5625 5623 5621 5618
5784 5782 5781 5779 5777 5775 5774 5772 5770 5768 5767 5765 5764 5762 5760 5759 5758 5757 5755 5754 5753 5751 5750 5748 5747 5746 5744 5743 5742 5740 5738 5737 5735 5734 5732 5730 5728 5726 5724 5723 5721 5719 5717 5715 5713 5711 5709 5707 5706 5704 5702 5700 5699 5697 5695 5694 5692 5690 5688 5686 5684 5682 5680 5679 5677 5674 5671 5669 5665 5662 5658 5657 5657 5655 5652 5648 5645 5642 5638 5635 5631 5628 5625 5622 5619 5617 5614 5611
5782 5780 5778 5777 5775 5773 5771 5770 5768 5766 5765 5763 5762 5760 5759 5757 5756 5755 5754 5753 5751 5750 5748 5747 5746 5744 5743 5741 5739 5738 5736 5734 5733 5731 5729 5727 5725 5723 5721 5719 5717 5715 5713 5711 5709 5707 5705 5704 5702 5700 5699 5697 5695 5694 5692 5691 5689 5687 5685 5683 5681 5679 5677 5675 5673 5671 5669 5665 5662 5659 5655 5652 5651 5649 5646 5643 5640 5637 5634 5630 5627 5623 5620 5617 5614 5611 5608 5605
5779 5778 5776 5774 5773 5771 5770 5768 5766 5765 5763 5762 5760 5759 5757 5756 5754 5753 5752 5751 5749 5748 5746 5745 5743 5742 5740 5739 5737 5735 5733 5731 5730 5728 5727 5725 5722 5720 5718 5716 5714 5712 5710 5708 5706 5704 5703 5701 5700 5698 5696 5695 5693 5692 5690 5688 5686 5684 5682 5680 5678 5677 5675 5673 5671 5668 5666 5662 5659 5656 5652 5649 5647 5644 5641 5638 5635 5632 5629 5626 5622 5618 5615 5612 5609 5606 5602 5599
5777 5776 5774 5772 5771 5769 5768 5766 5765 5764 5762 5760 5759 5757 5756 5754 5753 5751 5750 5749 5747 5746 5744 5743 5741 5739 5738 5736 5734 5733 5731 5729 5727 5725 5723 5722 5719 5717 5716 5714 5711 5709 5707 5706 5704 5702 5700 5699 5697 5696 5694 5693 5691 5689 5687 5686 5684 5682 5680 5678 5676 5675 5674 5671 5669 5666 5663 5660 5657 5653 5649 5646 5644 5641 5637 5634 5631 5628 5625 5621 5617 5612 5609 5606 5603 5600 5596 5593
5776 5774 5773 5771 5769 5768 5766 5765 5764 5762 5760 5759 5757 5756 5754 5752 5751 5749 5748 5747 5745 5744 5742 5741 5739 5737 5736 5734 5732 5730 5728 5726 5724 5722 5719 5718 5716 5714 5712 5711 5709 5707 5705 5704 5702 5700 5698 5697 5695 5694 5693 5691 5689 5687 5686 5685 5683 5681 5679 5678 5676 5674 5672 5670 5667 5664 5661 5657 5654 5650 5647 5643 5640 5637 5634 5630 5626 5622 5618 5615 5611 5607 5603 5599 5596 5594 5591 5588
5774 5772 5771 5770 5768 5766 5765 5763 5762 5760 5758 5757 5755 5754 5753 5751 5749 5748 5746 5745 5744 5742 5741 5739 5737 5736 5734 5732 5731 5729 5727 5725 5723 5720 5717 5715 5713 5712 5710 5709 5708 5706 5704 5703 5701 5700 5698 5696 5695 5693 5691 5689 5688 5686 5685 5684 5682 5680 5679 5677 5675 5673 5670 5668 5665 5661 5658 5654 5651 5648 5645 5641 5636 5633 5629 5625 5621 5617 5613 5609 5605 5601 5598 5594 5591 5588 5585 5582
5772 5771 5769 5768 5766 5764 5763 5761 5759 5758 5756 5755 5754 5752 5751 5749 5748 5746 5745 5743 5742 5741 5739 5737 5736 5734 5733 5731 5729 5727 5725 5724 5722 5720 5718 5716 5714 5713 5711 5710 5708 5706 5704 5703 5701 5700 5698 5697 5695 5693 5691 5689 5688 5686 5684 5683 5681 5679 5677 5675 5673 5670 5668 5665 5662 5658 5655 5652 5649 5646 5643 5638 5634 5629 5625 5621 5618 5613 5609 5605 5600 5597 5593 5589 5586 5583 5579 5576
5771 5769 5768 5766 5764 5763 5761 5760 5758 5756 5755 5753 5752 5751 5749 5748 5746 5745 5744 5742 5741 5739 5738 5736 5735 5733 5731 5729 5727 5726 5724 5723 5721 5720 5718 5716 5715 5714 5712 5710 5708 5706 5705 5703 5701 5700 5698 5696 5694 5692 5691 5690 5688 5685 5683 5681 5679 5676 5674 5671 5669 5666 5663 5660 5657 5655 5652 5649 5646 5643 5639 5635 5631 5627 5623 5618 5614 5609 5605 5601 5597 5593 5589 5585 5582 5578 5575 5571
5770 5768 5766 5764 5763 5761 5760 5758 5757 5755 5754 5752 5751 5749 5748 5747 5745 5744 5743 5741 5740 5738 5737 5735 5733 5732 5731 5729 5727 5726 5724 5722 5721 5719 5717 5716 5715 5714 5712 5710 5708 5706 5704 5703 5701 5700 5698 5696 5694 5692 5690 5688 5686 5683 5681 5678 5675 5673 5670 5667 5664 5662 5660 5657 5654 5651 5648 5646 5643 5639 5636 5632 5628 5624 5620 5615 5611 5606 5602 5598 5593 5589 5585 5581 5578 5574 5570 5567
5768 5767 5765 5763 5762 5760 5759 5757 5756 5754 5753 5751 5750 5749 5747 5746 5744 5743 5742 5740 5739 5737 5736 5735 5733 5732 5731 5729 5728 5726 5725 5723 5721 5719 5718 5717 5716 5714 5712 5710 5708 5707 5705 5703 5702 5699 5697 5695 5693 5691 5689 5687 5684 5681 5679 5676 5674 5671 5668 5665 5662 5660 5657 5654 5651 5648 5645 5642 5639 5636 5632 5629 5624 5620 5616 5612 5608 5603 5598 5594 5589 5585 5581 5577 5573 5569 5566 5562
5767 5766 5764 5763 5761 5760 5758 5757 5755 5754 5752 5751 5749 5748 5746 5745 5743 5742 5741 5740 5738 5737 5736 5735 5733 5732 5731 5730 5728 5727 5725 5724 5722 5721 5719 5718 5716 5714 5712 5710 5708 5707 5705 5703 5701 5698 5696 5694 5692 5690 5688 5685 5682 5679 5677 5675 5672 5669 5666 5663 5660 5657 5654 5651 5648 5645 5642 5638 5635 5633 5629 5625 5621 5617 5613 5608 5604 5599 5594 5590 5586 5581 5577 5573 5569 5565 5561 5557
5767 5765 5764 5762 5761 5760 5758 5757 5755 5754 5752 5751 5749 5747 5746 5745 5743 5742 5741 5739 5738 5737 5736 5735 5734 5733 5732 5730 5729 5728 5726 5724 5723 5721 5720 5718 5716 5714 5712 5710 5708 5706 5704 5702 5700 5698 5695 5693 5691 5689 5686 5683 5681 5678 5675 5672 5669 5667 5664 5661 5658 5654 5650 5647 5645 5642 5639 5635 5632 5629 5626 5622 5617 5614 5610 5605 5601 5596 5592 5587 5583 5579 5574 5570 5565 5561 5557 5553
5767 5765 5764 5762 5761 5759 5758 5757 5755 5754 5752 5750 5749 5747 5746 5745 5743 5742 5741 5740 5739 5738 5736 5735 5735 5734 5733 5731 5730 5728 5726 5725 5723 5721 5720 5718 5716 5714 5712 5710 5708 5706 5704 5702 5699 5697 5694 5692 5690 5687 5684 5682 5679 5677 5674 5671 5667 5664 5661 5658 5655 5651 5648 5645 5642 5638 5635 5632 5628 5625 5623 5619 5614 5610 5606 5602 5597 5593 5589 5585 5580 5575 5570 5565 5561 5556 5551 5547
5767 5765 5764 5763 5761 5760 5758 5757 5755 5753 5752 5750 5749 5748 5746 5745 5744 5743 5742 5741 5739 5738 5737 5737 5736 5734 5733 5731 5730 5728 5726 5725 5723 5721 5720 5718 5716 5714 5712 5710 5708 5705 5703 5701 5698 5696 5694 5691 5688 5686 5683 5681 5677 5675 5672 5669 5665 5662 5658 5655 5652 5649 5646 5643 5639 5635 5631 5628 5623 5620 5619 5615 5609 5605 5601 5597 5593 5589 5584 5580 5575 5570 5565 5560 5555 5550 5545 5540
5767 5765 5764 5763 5762 5760 5758 5757 5755 5754 5753 5751 5750 5749 5747 5746 5745 5744 5743 5741 5740 5739 5738 5737 5736 5734 5733 5731 5730 5728 5726 5725 5723 5721 5720 5718 5716 5714 5711 5709 5707 5705 5702 5700 5697 5695 5693 5690 5687 5684 5681 5678 5675 5673 5670 5667 5664 5660 5657 5654 5650 5646 5643 5639 5635 5631 5628 5624 5619 5614 5612 5610 5604 5600 5596 5592 5588 5583 5578 5574 5569 5564 5559 5554 5548 5543 5538 5534
5767 5766 5765 5763 5762 5760 5759 5758 5756 5755 5753 5752 5751 5750 5748 5747 5746 5745 5743 5742 5741 5740 5739 5738 5736 5735 5733 5732 5730 5728 5727 5725 5723 5721 5720 5717 5716 5713 5711 5709 5706 5704 5702 5699 5697 5694 5692 5689 5686 5683 5680 5677 5674 5671 5668 5664 5661 5657 5653 5650 5647 5644 5640 5636 5633 5629 5625 5621 5616 5610 5607 5605 5601 5596 5592 5588 5583 5578 5573 5568 5562 5557 5552 5547 5543 5538 5533 5529
5768 5767 5765 5764 5763 5761 5760 5758 5757 5755 5754 5753 5752 5750 5749 5748 5746 5745 5744 5743 5742 5741 5740 5738 5736 5735 5733 5732 5730 5728 5727 5725 5724 5722 5720 5717 5715 5713 5711 5708 5706 5704 5701 5698 5696 5693 5690 5688 5685 5682 5678 5675 5671 5668 5664 5660 5658 5654 5650 5646 5643 5640 5637 5633 5629 5626 5622 5618 5613 5608 5603 5601 5597 5591 5587 5583 5578 5573 5568 5563 5558 5553 5548 5543 5539 5534 5529 5523
5769 5767 5766 5765 5763 5762 5760 5759 5757 5756 5755 5754 5753 5751 5750 5748 5747 5746 5745 5744 5743 5741 5740 5738 5737 5735 5734 5732 5731 5729 5727 5726 5724 5722 5719 5717 5715 5712 5710 5708 5705 5703 5700 5697 5694 5691 5688 5685 5683 5680 5676 5673 5669 5665 5661 5658 5654 5651 5647 5643 5639 5636 5632 5628 5624 5621 5618 5615 5610 5604 5600 5597 5592 5587 5583 5578 5574 5569 5564 5559 5554 5549 5544 5539 5534 5528 5522 5516
5769 5768 5767 5765 5763 5762 5761 5760 5758 5757 5756 5755 5753 5752 5750 5749 5748 5747 5745 5744 5743 5741 5740 5738 5737 5735 5734 5732 5731 5729 5727 5725 5723 5721 5719 5717 5714 5712 5709 5707 5704 5701 5699 5696 5693 5690 5686 5683 5679 5676 5673 5670 5666 5662 5658 5655 5651 5648 5644 5640 5636 5632 5628 5625 5620 5616 5612 5610 5606 5600 5595 5593 5588 5583 5579 5575 5570 5565 5560 5556 5551 5545 5539 5533 5527 5521 5515 5511
5770 5769 5767 5766 5764 5763 5762 5760 5759 5758 5757 5755 5754 5752 5751 5750 5748 5747 5746 5744 5743 5741 5740 5739 5737 5736 5734 5732 5731 5729 5727 5725 5723 5720 5718 5716 5713 5711 5708 5706 5703 5700 5697 5694 5691 5688 5685 5681 5677 5673 5669 5666 5662 5659 5655 5652 5648 5644 5641 5637 5633 5629 5625 5621 5616 5612 5608 5604 5601 5596 5591 5589 5586 5579 5575 5572 5567 5562 5557 5552 5547 5541 5535 5528 5522 5516 5511 5506
5771 5769 5768 5766 5765 5764 5762 5761 5760 5758 5757 5756 5754 5753 5751 5750 5749 5747 5746 5744 5743 5742 5740 5739 5737 5736 5734 5732 5730 5728 5726 5724 5722 5720 5717 5715 5712 5710 5707 5704 5701 5698 5695 5692 5689 5686 5682 5679 5675 5671 5667 5663 5660 5656 5653 5649 5645 5641 5638 5634 5630 5626 5622 5618 5614 5609 5605 5600 5598 5594 5588 5585 5583 5576 5571 5568 5563 5558 5554 5548 5542 5537 5531 5525 5519 5513 5507 5501
5771 5770 5768 5767 5766 5764 5763 5762 5760 5759 5758 5756 5754 5753 5752 5751 5749 5748 5746 5745 5743 5742 5740 5739 5737 5736 5734 5732 5730 5728 5726 5724 5721 5719 5716 5714 5711 5708 5705 5702 5699 5696 5693 5690 5687 5683 5680 5677 5673 5669 5665 5661 5657 5654 5650 5647 5643 5639 5634 5631 5627 5623 5620 5616 5611 5606 5601 5597 5595 5592 5585 5580 5577 5573 5568 5563 5558 5553 5548 5543 5538 5532 5527 5521 5515 5509 5503 5497
5772 5770 5769 5767 5766 5765 5763 5762 5761 5759 5758 5756 5755 5754 5752 5751 5749 5748 5747 5745 5744 5742 5741 5739 5737 5735 5734 5731 5729 5727 5725 5723 5721 5718 5716 5713 5710 5707 5704 5701 5697 5694 5691 5688 5684 5681 5677 5674 5670 5667 5663 5658 5655 5651 5648 5644 5640 5635 5631 5627 5624 5620 5616 5612 5607 5602 5597 5594 5591 5587 5583 5577 5572 5568 5564 5559 5554 5549 5544 5539 5533 5528 5522 5516 5510 5504 5498 5492
5772 5771 5769 5768 5766 5765 5764 5762 5761 5760 5758 5757 5755 5754 5753 5751 5750 5748 5747 5745 5744 5742 5740 5739 5737 5735 5733 5731 5729 5727 5725 5722 5720 5717 5714 5711 5708 5705 5702 5699 5696 5692 5689 5685 5682 5678 5674 5670 5667 5663 5660 5655 5651 5648 5645 5641 5637 5632 5628 5624 5621 5617 5613 5609 5604 5598 5593 5590 5587 5582 5579 5574 5568 5563 5559 5554 5549 5544 5540 5534 5529 5524 5517 5511 5505 5499 5493 5487
5773 5771 5769 5768 5767 5765 5764 5763 5761 5760 5758 5757 5756 5754 5753 5752 5750 5748 5747 5745 5744 5742 5740 5739 5737 5735 5733 5731 5729 5726 5724 5721 5719 5716 5713 5710 5707 5704 5700 5697 5693 5690 5686 5682 5679 5675 5671 5667 5663 5660 5657 5652 5648 5645 5641 5637 5634 5629 5625 5621 5617 5613 5609 5605 5601 5596 5590 5586 5582 5577 5573 5569 5564 5559 5554 5549 5544 5540 5535 5530 5524 5519 5512 5506 5500 5494 5488 5482
5773 5771 5770 5769 5767 5766 5764 5763 5762 5760 5759 5757 5756 5755 5753 5752 5750 5749 5747 5745 5744 5742 5740 5739 5737 5734 5732 5730 5728 5726 5723 5720 5718 5715 5712 5709 5705 5702 5698 5695 5691 5687 5684 5679 5676 5672 5668 5664 5660 5656 5654 5649 5644 5641 5637 5633 5630 5626 5621 5617 5613 5609 5606 5602 5598 5592 5585 5581 5578 5573 5568 5563 5559 5554 5550 5545 5540 5535 5530 5524 5519 5514 5508 5502 5496 5490 5484 5478
5773 5772 5770 5769 5768 5766 5765 5763 5762 5761 5759 5758 5756 5755 5753 5752 5750 5749 5747 5745 5744 5742 5740 5738 5736 5734 5732 5729 5727 5725 5722 5719 5716 5714 5711 5707 5704 5700 5696 5693 5689 5685 5681 5677 5673 5669 5665 5661 5657 5653 5650 5647 5642 5638 5634 5630 5626 5622 5617 5613 5609 5605 5602 5599 5595 5588 5581 5577 5573 5568 5564 5559 5554 5549 5544 5540 5535 5530 5524 5519 5514 5510 5505 5499 5493 5486 5480 5473